Location: LDNL
(36.4545°S, 141.6685°E)
Time: 20:06:09
(UTC+10:00)

XW-2B - Visible Passes

Search period start: 22 May 2022 00:00
Search period end: 01 June 2022 00:00
Orbit: 497 x 518 km, 97.5° (Epoch: 21 May)

Date Brightness Start Highest point End Pass type
(mag) Time Alt. Az. Time Alt. Az. Time Alt. Az.
22 May ? 05:09:25 10° ENE 05:12:25 23° ESE 05:15:09 12° SSE visible
22 May ? 06:43:23 10° NW 06:46:13 20° W 06:49:06 10° SW visible
22 May ? 18:15:17 10° SSE 18:18:57 42° E 18:22:32 10° N visible
22 May ? 19:51:05 10° SW 19:52:23 11° WSW 19:53:40 10° W visible
23 May ? 04:53:15 10° ENE 04:55:22 14° ESE 04:57:30 10° SSE visible
23 May ? 06:25:30 10° NNW 06:28:56 33° W 06:32:25 10° SSW visible
23 May ? 17:58:26 10° SE 18:01:40 25° E 18:04:49 10° NNE visible
23 May ? 19:32:41 10° SSW 19:35:20 18° WSW 19:37:58 10° WNW visible
24 May ? 06:07:57 10° N 06:11:39 57° W 06:14:56 13° SSW visible
24 May ? 19:14:54 10° SSW 19:18:15 29° WSW 19:21:31 10° NW visible
25 May ? 05:50:39 10° NNE 05:54:25 82° ESE 05:57:25 16° S visible
25 May ? 18:57:22 10° S 19:01:05 48° WSW 19:04:42 10° NNW visible
26 May ? 05:33:34 10° NNE 05:37:12 46° ESE 05:39:51 17° S visible
26 May ? 18:40:01 10° S 18:43:50 85° WSW 18:47:35 10° NNW visible
27 May ? 05:16:45 10° NE 05:20:00 28° ESE 05:22:17 16° SSE visible
27 May ? 06:51:28 10° NW 06:53:54 16° W 06:56:23 10° SW visible
27 May ? 18:22:48 10° SSE 18:26:33 54° E 18:30:13 10° N visible
28 May ? 05:00:16 10° ENE 05:02:51 18° ESE 05:04:42 13° SE visible
28 May ? 06:33:16 10° NNW 06:36:30 26° W 06:39:32 11° SW visible
28 May ? 18:05:46 10° SSE 18:09:12 31° E 18:12:34 10° NNE visible
28 May ? 19:40:35 10° SSW 19:42:46 15° WSW 19:44:56 10° WNW visible
29 May ? 04:44:36 10° E 04:45:43 11° ESE 04:46:50 10° SE visible
29 May ? 06:15:30 10° N 06:19:08 45° W 06:21:56 16° SSW visible
29 May ? 19:22:31 10° SSW 19:25:36 24° WSW 19:28:37 10° NW visible
30 May ? 05:58:00 10° N 06:01:46 80° WNW 06:04:20 20° SSW visible
30 May ? 19:04:47 10° S 19:08:21 38° WSW 19:11:51 10° NW visible
31 May ? 05:40:44 10° NNE 05:44:27 59° ESE 05:46:42 23° S visible
31 May ? 18:47:16 10° S 18:51:03 68° WSW 18:54:45 10° NNW visible
